Retour au catalogue

STARLINK-5459

ActifCommunicationsVLEO
NORAD 55669·PAYLOAD·🇺🇸 United States

Lancé Feb 17, 2023 depuis Vandenberg Space Force Base

Loading…

Prochains Passages (prochaines 24 heures)

TLE

FraisSource: CelesTrak SupGP

Époque: Sep 15, 2026, 02:39 UTC

1 55669C 23021AT  26258.11090278 -.00036045  00000+0 -30217-2 0  2582
2 55669  70.0021  46.8669 0003272 269.2077 239.2783 14.98335443    18

Suivez STARLINK-5459 en temps réel avec AllMySat

Download on the App Store